Flight Track Log - Related Links

Times and Time Zones

All times are in EDT time to prevent confusion due to time zone crossing. See the AAL1423 flight status page for this flight to view local times or setup timezone preferences in your user account.

Time Position Orientation Groundspeed Altitude Reporting Facility
EDT Latitude Longitude Course Direction KTS MPH feet Rate Location/Type
07:31AM 26.8119 -80.3794 336° Northwest  Level Estimated
07:32AM 26.8547 -80.4741 338° Northwest  Level Estimated
07:32AM 26.8235 -80.0718 279° West 287 330 8,700  Level FlightAware ADS-B (RJTF)
07:33AM 26.8974 -80.5690 332° Northwest  Level Estimated
07:33AM 26.8281 -80.1037 279° West 288 331 9,500  Level FlightAware ADS-B (RJTF)
07:33AM 26.8386 -80.1744 280° West 318 366 11,100 1,760 Climbing FlightAware ADS-B (RJTF)
07:34AM 26.8471 -80.2269 280° West 355 409 11,700 1,377 Climbing FlightAware ADS-B (RJTF)
07:34AM 26.8568 -80.2816 283° West 369 425 12,500 2,557 Climbing FlightAware ADS-B (RJTF)
07:35AM 26.8703 -80.3369 286° West 368 423 14,300 3,360 Climbing FlightAware ADS-B (RJTF)
07:36AM 26.8917 -80.4206 286° West 370 426 16,700 4,125 Climbing FlightAware ADS-B (RJTF)
07:36AM 26.9013 -80.4586 285° West 372 428 18,700 2,949 Climbing FlightAware ADS-B
07:37AM 26.9188 -80.5306 285° West 379 436 19,600 1,099 Climbing FlightAware ADS-B (RJTF)
07:37AM 26.9295 -80.5742 286° West 385 443 20,000 320 Climbing FlightAware ADS-B (RJTF)
07:38AM 26.9490 -80.6533 285° West 381 438 20,000 640 Level FlightAware ADS-B (RJTF)
07:38AM 26.9684 -80.7324 285° West 381 438 20,800 1,754 Climbing FlightAware ADS-B (RJTF)
07:39AM 26.9850 -80.7998 285° West 388 447 21,900 1,969 Climbing FlightAware ADS-B
07:40AM 27.0000 -80.8608 285° West 396 456 22,900 1,944 Climbing FlightAware ADS-B
07:40AM 27.0067 -80.8881 285° West 399 459 24,200 2,202 Climbing FlightAware ADS-B (RJTF)
07:41AM 27.0317 -80.9894 285° West 400 460 26,900 2,182 Climbing FlightAware ADS-B
07:42AM 27.0680 -81.1384 285° West 405 466 27,800 1,457 Climbing FlightAware ADS-B
07:43AM 27.0692 -81.1432 285° West 415 478 28,600 1,478 Climbing FlightAware ADS-B
07:43AM 27.1030 -81.2820 285° West 419 482 29,500 2,000 Climbing FlightAware ADS-B
07:44AM 27.1179 -81.3437 285° West 412 474 30,600 2,300 Climbing FlightAware ADS-B
07:44AM 27.1328 -81.4063 285° West 402 463 31,800 2,262 Climbing FlightAware ADS-B
07:45AM 27.1474 -81.4673 285° West 394 453 32,900 1,859 Climbing FlightAware ADS-B
07:45AM 27.1661 -81.5449 285° West 388 447 34,000 943 Climbing FlightAware ADS-B
07:46AM 27.1803 -81.6039 285° West 388 447 34,000  Level FlightAware ADS-B
07:46AM 27.1988 -81.6805 285° West 388 447 34,000  Level FlightAware ADS-B
07:47AM 27.2124 -81.7371 285° West 387 445 34,000  Level FlightAware ADS-B
07:48AM 27.2312 -81.8162 285° West 386 444 34,000  Level FlightAware ADS-B
07:48AM 27.2452 -81.8751 285° West 386 444 34,000  Level FlightAware ADS-B
07:49AM 27.2606 -81.9399 285° West 386 444 34,000  Level FlightAware ADS-B
07:49AM 27.2766 -82.0077 285° West 386 444 34,000 492 Level FlightAware ADS-B
07:50AM 27.2909 -82.0679 285° West 388 447 34,500 1,452 Climbing FlightAware ADS-B
07:50AM 27.3053 -82.1287 285° West 381 438 35,500 1,846 Climbing FlightAware ADS-B
07:51AM 27.3200 -82.1913 285° West 374 430 36,500 1,213 Climbing FlightAware ADS-B
07:52AM 27.3446 -82.2970 285° West 377 434 37,300 913 Climbing FlightAware ADS-B
07:52AM 27.3603 -82.3634 285° West 381 438 37,900 568 Climbing FlightAware ADS-B
07:56AM 27.4557 -82.8248 283° West 373 429 40,000 452 Climbing FlightAware ADS-B
07:57AM 27.4658 -82.8796 282° West 357 411 40,000  Level FlightAware ADS-B
07:58AM 27.4878 -82.9990 282° West 358 412 40,000  Level FlightAware ADS-B
07:59AM 27.4974 -83.0506 282° West 357 411 40,000  Level FlightAware ADS-B
08:00AM 27.5139 -83.1544 282° West 354 407 40,000  Level Miami Center
08:01AM 27.5342 -83.2656 282° West 354 407 40,000  Level Miami Center
08:02AM 27.5564 -83.3744 283° West 354 407 40,000  Level Miami Center
08:03AM 27.5742 -83.4831 280° West 354 407 40,000  Level Miami Center
08:05AM 27.6194 -83.7381 281° West 342 394 40,000  Level Jacksonville Center
08:06AM 27.6414 -83.8483 283° West 356 410 40,000  Level Jacksonville Center
08:07AM 27.6553 -83.9583 278° West 356 410 40,000  Level Jacksonville Center
08:08AM 27.6814 -84.0689 285° West 356 410 40,000  Level Jacksonville Center
08:09AM 27.6992 -84.1839 280° West 361 415 40,000  Level Jacksonville Center
08:10AM 27.7208 -84.2944 283° West 361 415 40,000 -50 Level Jacksonville Center
08:11AM 27.7383 -84.4047 280° West 361 415 39,900 -50 Descending Jacksonville Center
08:12AM 27.7661 -84.5178 286° West 367 422 39,900 50 Level Jacksonville Center
08:13AM 27.7772 -84.6306 276° West 372 428 40,000 50 Climbing Jacksonville Center
08:14AM 27.7967 -84.7433 281° West 372 428 40,000 -50 Level Jacksonville Center
08:15AM 27.8139 -84.8422 281° West 372 428 39,900  Descending Jacksonville Center
08:16AM 27.8308 -84.9575 279° West 367 422 40,000 50 Climbing Jacksonville Center
08:17AM 27.8497 -85.0728 281° West 372 428 40,000  Level Jacksonville Center
08:18AM 27.8731 -85.1836 283° West 372 428 40,000  Level Jacksonville Center
08:19AM 27.8939 -85.2992 282° West 372 428 40,000  Level Jacksonville Center
08:20AM 27.9292 -85.4128 289° West 372 428 40,000  Level Jacksonville Center
08:21AM 27.9625 -85.5242 289° West 382 440 40,000  Level Jacksonville Center
08:22AM 27.9975 -85.6378 289° West 379 436 40,000  Level Jacksonville Center
08:23AM 28.0306 -85.7467 289° West 379 436 40,000  Level Jacksonville Center
08:24AM 28.0636 -85.8558 289° West 379 436 40,000  Level Jacksonville Center
08:25AM 28.0986 -85.9675 290° West 379 436 40,000  Level Jacksonville Center
08:26AM 28.1311 -86.0861 287° West 379 436 40,000  Level Jacksonville Center
08:27AM 28.1658 -86.2003 289° West 384 442 40,000  Level Jacksonville Center
08:28AM 28.1967 -86.3025 289° West 378 435 40,000 -50 Level Jacksonville Center
08:29AM 28.2308 -86.4192 288° West 373 429 39,900  Descending Jacksonville Center
08:30AM 28.2633 -86.5261 289° West 372 428 40,000 50 Climbing Jacksonville Center
08:31AM 28.2978 -86.6431 289° West 377 434 40,000  Level Jacksonville Center
08:32AM 28.3300 -86.7525 289° West 377 434 40,000  Level Jacksonville Center
08:33AM 28.3619 -86.8647 288° West 377 434 40,000 -50 Level Jacksonville Center
08:34AM 28.4106 -86.9775 296° West 377 434 39,900  Descending Jacksonville Center
08:35AM 28.4678 -87.0789 303° West 377 434 40,000 45 Climbing Jacksonville Center
08:36AM 28.5353 -87.1967 303° West 389 448 40,000  Level Houston Center
08:37AM 28.6053 -87.3231 302° West 391 450 40,000 -48 Level Houston Center
08:38AM 28.6617 -87.4286 301° West 390 449 39,900  Descending Houston Center
08:39AM 28.7194 -87.5344 302° West 391 450 40,000 48 Climbing Houston Center
08:40AM 28.7764 -87.6394 302° West 392 451 40,000 -48 Level Houston Center
08:41AM 28.8342 -87.7453 302° West 392 451 39,900  Descending Houston Center
08:42AM 28.8911 -87.8517 301° West 392 451 40,000 49 Climbing Houston Center
08:43AM 28.9600 -87.9800 302° West 393 452 40,000  Level Houston Center
08:44AM 29.0078 -88.0694 301° West 393 452 40,000  Level Houston Center
08:45AM 29.0769 -88.1986 302° West 396 456 40,000 -48 Level Houston Center
08:46AM 29.1347 -88.3058 302° West 396 456 39,900  Descending Houston Center
08:47AM 29.1922 -88.4136 301° West 396 456 40,000 48 Climbing Houston Center
08:48AM 29.2489 -88.5206 301° West 396 456 40,000  Level Houston Center
08:50AM 29.3050 -88.6283 301° West 396 456 40,000  Level Houston Center
08:51AM 29.3625 -88.7353 302° West 395 455 40,000 -48 Level Houston Center
08:52AM 29.4300 -88.8647 301° West 395 455 39,900  Descending Houston Center
08:53AM 29.4869 -88.9717 301° West 395 455 40,000 48 Climbing Houston Center
08:54AM 29.5425 -89.0792 301° West 393 452 40,000  Level Houston Center
08:55AM 29.5992 -89.1861 301° West 393 452 40,000  Level Houston Center
08:56AM 29.6550 -89.2928 301° West 393 452 40,000  Level Houston Center
08:57AM 29.7108 -89.4028 300° West 393 452 40,000 -48 Level Houston Center
08:58AM 29.7786 -89.5336 301° West 393 452 39,900  Descending Houston Center
08:59AM 29.8342 -89.6444 300° West 395 455 40,000  Climbing Houston Center
09:00AM 29.8903 -89.7531 301° West 395 455 39,900  Descending Houston Center
09:01AM 29.9461 -89.8614 301° West 394 453 40,000 16 Climbing Houston Center
09:06AM 30.2358 -90.4287 301° West 397 457 40,000  Level FlightAware ADS-B (KHOU)
09:07AM 30.3104 -90.5766 301° West 397 457 40,000  Level FlightAware ADS-B (KHOU)
09:08AM 30.3312 -90.6176 301° West 399 459 40,000  Level FlightAware ADS-B (KHOU)
09:10AM 30.4580 -90.8701 301° West 396 456 40,000  Level FlightAware ADS-B (KHOU)
09:12AM 30.5651 -91.0848 300° West 388 447 40,000  Level FlightAware ADS-B (KHOU)
09:14AM 30.6519 -91.2598 300° West 383 441 40,000  Level FlightAware ADS-B (KHOU)
09:14AM 30.6774 -91.3116 300° West 382 440 40,000  Level FlightAware ADS-B (KHOU)
09:15AM 30.7047 -91.3667 300° West 382 440 40,000  Level FlightAware ADS-B (KHOU)
09:15AM 30.7308 -91.4199 300° West 382 440 40,000  Level FlightAware ADS-B (KHOU)
09:16AM 30.7548 -91.4686 300° West 383 441 40,000  Level FlightAware ADS-B (KHOU)
09:16AM 30.7743 -91.5081 300° West 383 441 40,000  Level FlightAware ADS-B (KHOU)
09:17AM 30.8091 -91.5787 300° West 383 441 40,000  Level FlightAware ADS-B (KHOU)
09:17AM 30.8198 -91.6005 300° West 385 443 40,000  Level FlightAware ADS-B (KHOU)
09:20AM 30.9696 -91.9066 300° West 390 449 40,000  Level FlightAware ADS-B (KHOU)
09:20AM 30.9759 -91.9195 300° West 390 449 40,000  Level FlightAware ADS-B (KHOU)
09:22AM 31.0815 -92.1376 300° West 390 449 40,000  Level FlightAware ADS-B (KHOU)
09:22AM 31.1104 -92.1975 300° West 394 453 40,000  Level FlightAware ADS-B (KHOU)
09:23AM 31.1373 -92.2528 300° West 394 453 40,000  Level FlightAware ADS-B (KHOU)
09:23AM 31.1471 -92.2729 300° West 394 453 40,000  Level FlightAware ADS-B (KHOU)
09:24AM 31.2151 -92.4145 300° West 394 453 40,000  Level FlightAware ADS-B (KHOU)
09:25AM 31.2410 -92.4684 300° West 393 452 40,000  Level FlightAware ADS-B (KHOU)
09:26AM 31.2747 -92.5484 294° West 390 449 40,000  Level FlightAware ADS-B
09:27AM 31.3284 -92.6906 294° West 390 449 40,000  Level FlightAware ADS-B (KHOU)
09:27AM 31.3481 -92.7431 294° West 391 450 40,000  Level FlightAware ADS-B (KHOU)
09:28AM 31.3718 -92.8057 294° West 393 452 40,000  Level FlightAware ADS-B (KHOU)
09:28AM 31.3941 -92.8649 294° West 394 453 40,000  Level FlightAware ADS-B (KHOU)
09:29AM 31.4161 -92.9233 294° West 395 455 40,000  Level FlightAware ADS-B (KHOU)
09:29AM 31.4366 -92.9779 294° West 396 456 40,000  Level FlightAware ADS-B (KHOU)
09:30AM 31.4602 -93.0411 294° West 398 458 40,000  Level FlightAware ADS-B (KHOU)
09:30AM 31.4818 -93.0987 294° West 399 459 40,000  Level FlightAware ADS-B (KHOU)
09:31AM 31.5047 -93.1600 294° West 399 459 40,000  Level FlightAware ADS-B (KHOU)
09:31AM 31.3938 -92.8639 293° West 391 450 40,000  Level FlightAware ADS-B
09:31AM 31.5135 -93.1837 294° West 399 459 40,000  Level FlightAware ADS-B (KHOU)
09:32AM 31.5486 -93.2782 294° West 400 460 40,000  Level FlightAware ADS-B (KHOU)
09:32AM 31.5711 -93.3389 294° West 400 460 40,000  Level FlightAware ADS-B (KHOU)
09:33AM 31.5847 -93.3757 294° West 400 460 40,000  Level FlightAware ADS-B (KHOU)
09:33AM 31.6133 -93.4531 294° West 401 461 40,000  Level FlightAware ADS-B (KHOU)
09:33AM 31.6315 -93.5022 293° West 401 461 40,000  Level FlightAware ADS-B
09:34AM 31.6367 -93.5162 294° West 400 460 40,000  Level FlightAware ADS-B (KHOU)
09:34AM 31.6593 -93.5776 294° West 399 459 40,000  Level FlightAware ADS-B (KHOU)
09:34AM 31.6600 -93.5796 293° West 400 460 40,000  Level FlightAware ADS-B
09:35AM 31.6797 -93.6331 294° West 399 459 40,000  Level FlightAware ADS-B (KHOU)
09:35AM 31.6907 -93.6626 293° West 399 459 40,000  Level FlightAware ADS-B
09:35AM 31.7028 -93.6958 294° West 398 458 40,000  Level FlightAware ADS-B (KHOU)
09:35AM 31.7158 -93.7312 293° West 398 458 40,000  Level FlightAware ADS-B
09:36AM 31.7249 -93.7561 294° West 396 456 40,000  Level FlightAware ADS-B (KHOU)
09:36AM 31.7428 -93.8054 292° West 395 455 40,000  Level FlightAware ADS-B
09:36AM 31.7459 -93.8154 290° West 393 452 40,000  Level FlightAware ADS-B (KHOU)
09:36AM 31.7512 -93.8357 287° West 391 450 40,000  Level FlightAware ADS-B (KHOU)
09:37AM 31.7615 -93.8870 283° West 390 449 40,000  Level FlightAware ADS-B
09:37AM 31.7740 -93.9503 283° West 390 449 40,000  Level FlightAware ADS-B
09:38AM 31.7897 -94.0304 283° West 389 448 40,000  Level FlightAware ADS-B
09:38AM 31.8022 -94.0939 283° West 389 448 40,000  Level FlightAware ADS-B
09:40AM 31.8502 -94.3411 283° West 389 448 40,000  Level FlightAware ADS-B
09:41AM 31.8662 -94.4237 283° West 389 448 40,000  Level FlightAware ADS-B
09:42AM 31.8818 -94.5047 283° West 390 449 40,000  Level FlightAware ADS-B
09:43AM 31.9041 -94.6207 283° West 390 449 40,000 -61 Level FlightAware ADS-B
09:43AM 31.9150 -94.6814 283° West 388 447 39,900  Descending Houston Center
09:44AM 31.9392 -94.8050 283° West 389 448 40,000 -532 Climbing Houston Center
09:45AM 31.9681 -94.9539 283° West 391 450 38,800 -1,500 Descending Houston Center
09:46AM 31.9900 -95.0772 282° West 389 448 36,900 -1,839 Descending Houston Center
09:47AM 32.0136 -95.2033 282° West 393 452 35,000 -2,130 Descending Houston Center
09:53AM 32.2171 -95.9073 290° West 386 444 23,200 -2,186 Descending FlightAware ADS-B (KHOU)
09:53AM 32.2352 -95.9665 290° West 380 437 22,100 -2,182 Descending FlightAware ADS-B (KHOU)
09:54AM 32.2492 -96.0123 290° West 378 435 21,200 -2,164 Descending FlightAware ADS-B (KHOU)
09:54AM 32.2706 -96.0825 290° West 373 429 19,900 -2,031 Descending FlightAware ADS-B (KHOU)
09:55AM 32.2864 -96.1344 290° West 368 423 19,000 -1,900 Descending FlightAware ADS-B (KHOU)
09:55AM 32.3052 -96.1961 290° West 363 418 18,000 -2,000 Descending FlightAware ADS-B (KHOU)
09:56AM 32.3222 -96.2524 290° West 366 421 17,000 -1,831 Descending FlightAware ADS-B (KHOU)
09:56AM 32.3369 -96.3014 290° West 357 411 16,200 -1,722 Descending FlightAware ADS-B (KHOU)
09:58AM 32.3892 -96.4559 304° West 345 397 13,700 -1,778 Descending FlightAware ADS-B
09:58AM 32.4140 -96.4879 315° West 344 396 13,000 -1,101 Descending FlightAware ADS-B
10:00AM 32.5644 -96.6667 315° West 335 386 10,800 -660 Descending FlightAware ADS-B
10:01AM 32.6328 -96.7486 315° West 307 353 10,800  Level FlightAware ADS-B
10:02AM 32.6714 -96.7947 315° West 269 310 10,800  Level FlightAware ADS-B
10:03AM 32.7198 -96.8527 315° West 253 291 10,800  Level FlightAware ADS-B
10:04AM 32.7521 -96.8912 316° Northwest 253 291 10,800  Level FlightAware ADS-B
10:04AM 32.7833 -96.9358 308° West 251 289 10,800  Level FlightAware ADS-B
10:05AM 32.8080 -96.9770 290° West 244 281 10,800 -973 Level FlightAware ADS-B
10:06AM 32.8201 -97.0194 289° West 252 290 9,600 -1,932 Descending FlightAware ADS-B
10:06AM 32.8309 -97.0557 290° West 251 289 8,900 -1,600 Descending FlightAware ADS-B
10:07AM 32.8452 -97.1012 290° West 244 281 8,000 -1,448 Descending FlightAware ADS-B
10:07AM 32.8531 -97.1272 289° West 239 275 7,500 -1,594 Descending FlightAware ADS-B
10:08AM 32.8778 -97.1756 315° West 243 280 6,300 -1,317 Descending FlightAware ADS-B
10:09AM 32.9322 -97.2394 317° Northwest 238 274 4,800 -882 Descending FlightAware ADS-B
10:09AM 32.9567 -97.2655 333° Northwest 238 274 4,800 -300 Level FlightAware ADS-B
10:10AM 32.9793 -97.2680 13° North 226 260 4,600 -462 Descending FlightAware ADS-B
10:10AM 32.9991 -97.2621 14° North 210 242 4,500 -750 Descending FlightAware ADS-B
10:10AM 33.0183 -97.2561 15° North 204 235 4,100 -1,325 Descending FlightAware ADS-B
10:11AM 33.0303 -97.2126 126° Southeast 181 208 2,800 -1,008 Descending FlightAware ADS-B
10:12AM 32.9910 -97.1669 139° Southeast 170 196 2,100 -621 Descending FlightAware ADS-B
10:13AM 32.9637 -97.1388 139° Southeast 139 160 1,600 -529 Descending FlightAware ADS-B
10:14AM 32.9551 -97.1300 139° Southeast 137 158 1,500 -424 Descending FlightAware ADS-B
10:15AM 32.9167 -97.1000 139° Southeast 134 154 1,000 -469 Descending Dallas / Fort Worth TRACON
10:16AM 32.8989 -97.0722 127° Southeast 134 154 500 -517 Descending Fort Worth Center

Login

Don't have an account? Register now (free) for customized features, flight alerts, and more!